Wind_Speed
6 3 3 7 7 8 10 11 9 5 5 5 5 4 4 5 6 4 4 5 1 1 6 6 6 8 10 5 4 3 6 8 9 8 7 6 5 4 3 3 3 3 3 4 3 4 5 6 6 6 7 7 6 7 7 7 8 9 9 9 9 10 9 8 8 6 5 4 3 2 2 2 3 2 1 1 1 2 3 4 5 6 7 7 8 9
4 5 9 10 7 8 8 8 6 2 4 4 4 3 4 5 6 6 4 4 1 2 5 3 2 9 9 2 4 1 5 5 7 8 7 7 6 5 4 4 4 4 5 5 5 6 7 8 9 10 10 10 11 12 13 13 14 14 13 14 14 13 12 11 11 9 8 8 7 6 6 6 4 4 3 3 3 3 3 4 5 6 7 7 8 8
2 5 12 8 5 6 2 3 5 4 3 2 3 2 4 3 3 6 4 4 1 3 4 2 2 9 7 2 4 2 3 3 5 7 7 9 8 7 6 6 6 6 7 7 8 10 11 13 14 15 16 17 18 19 20 21 21 20 20 20 20 18 17 17 16 14 15 15 13 12 12 10 8 8 8 7 7 6 5 4 4 4 4 5 6 6
3 7 10 7 8 7 2 4 6 3 2 3 3 3 4 2 0 4 4 4 1 1 2 1 3 8 5 1 3 3 4 5 5 6 8 9 9 9 8 8 8 8 10 11 13 15 17 18 20 22 23 23 23 24 24 24 24 24 24 24 23 22 21 21 20 19 19 18 17 16 14 13 12 13 12 10 10 9 8 7 7 7 6 6 6 5
7 6 3 6 7 6 4 3 6 5 2 4 5 6 5 3 4 6 4 4 2 3 1 2 2 6 5 4 2 1 4 6 5 7 8 8 9 10 10 10 10 11 13 16 18 20 21 23 25 26 26 25 25 25 25 25 25 25 24 24 23 23 22 22 21 20 19 17 17 16 15 14 14 14 13 11 12 12 10 10 10 10 9 9 8 7
8 5 4 6 3 5 6 4 5 7 3 4 5 9 10 7 7 5 3 5 4 4 3 1 3 5 4 4 4 3 2 3 3 5 6 7 9 10 10 12 12 14 17 19 22 23 24 25 26 26 25 24 24 25 25 24 24 24 23 23 22 22 22 22 21 20 18 16 16 15 14 13 12 12 12 12 13 12 11 12 11 11 10 10 9 9
4 3 4 5 5 6 5 4 5 7 5 3 4 8 9 7 4 3 2 1 0 3 3 3 2 5 6 5 2 3 2 1 1 2 4 6 8 10 12 13 15 17 20 22 23 24 24 25 25 25 24 24 24 24 23 22 22 21 21 21 20 21 21 21 20 18 16 15 14 13 12 11 10 10 12 13 12 12 12 11 9 9 9 9 9 9
3 1 2 4 5 6 5 5 6 8 7 3 4 4 6 7 6 5 5 4 3 3 3 3 1 3 5 4 1 3 2 2 3 3 3 7 9 11 13 15 17 20 21 22 23 23 24 23 23 24 23 23 23 22 21 20 20 19 19 19 19 19 19 19 17 15 14 13 13 12 11 10 10 11 11 11 9 9 9 7 7 7 7 7 8 8
2 3 4 6 5 4 6 4 8 10 5 4 3 6 6 6 6 5 5 3 1 2 4 4 0 2 5 4 3 4 0 6 6 6 6 9 11 12 14 17 19 21 22 22 22 23 23 22 22 22 22 22 21 20 19 18 17 17 16 16 16 17 17 17 15 13 13 12 11 11 10 9 9 10 9 8 7 6 6 5 5 5 5 6 6 6
1 3 5 7 5 5 5 3 8 10 4 5 6 7 6 5 5 4 4 3 2 1 4 6 3 2 5 3 1 1 3 7 5 5 7 12 13 14 16 19 21 21 22 22 22 23 22 22 22 21 20 19 18 17 16 16 15 15 14 13 13 15 15 14 13 11 11 11 10 9 9 9 9 8 7 6 4 4 4 3 4 4 4 5 5 6
1 1 2 4 4 5 5 2 3 5 5 8 7 6 6 5 5 3 2 4 2 2 6 7 5 4 4 4 3 3 4 4 5 4 7 11 15 18 19 21 22 22 22 23 23 23 22 21 20 19 18 17 16 15 14 14 13 12 12 10 11 13 13 12 11 10 10 10 9 9 9 8 8 7 5 4 3 4 3 3 4 4 4 5 5 6
3 0 2 2 4 5 7 5 3 3 5 7 4 4 4 3 3 4 4 3 1 5 5 4 2 3 4 5 4 5 5 4 5 6 9 13 18 22 23 24 24 23 23 23 23 23 22 21 19 18 16 15 14 13 12 11 11 10 10 8 9 12 11 9 9 9 9 8 7 8 7 7 6 5 4 4 4 4 4 5 4 4 4 5 5 5
3 4 3 1 4 6 6 5 4 3 4 5 4 6 4 2 3 2 3 0 3 6 4 2 1 3 6 5 5 6 6 5 5 6 11 18 24 26 27 27 25 24 24 24 24 23 22 20 19 17 15 14 13 12 10 9 8 8 8 7 7 9 8 7 7 7 7 6 6 6 5 5 5 4 4 5 5 5 5 5 4 4 4 4 4 4
3 5 1 2 3 7 8 5 2 1 2 5 5 5 4 2 1 3 3 2 4 4 2 2 1 2 4 4 5 6 5 4 7 9 12 21 28 30 30 28 26 25 25 25 25 24 22 20 18 16 14 13 12 10 9 8 7 6 6 6 5 6 7 5 4 5 5 4 4 3 3 4 4 4 5 5 5 5 5 5 4 4 5 5 5 6
2 4 4 5 2 7 10 6 5 6 4 4 4 5 5 5 4 4 3 3 4 3 2 2 1 3 3 2 4 6 6 5 7 10 12 19 26 28 28 28 26 26 26 26 25 24 23 21 19 17 14 13 11 10 8 7 6 4 4 4 3 4 4 3 2 3 2 2 2 2 3 3 4 5 5 6 6 6 6 6 6 7 7 8 8 9
3 5 5 2 0 6 7 4 5 7 3 2 2 4 3 4 4 2 3 5 3 3 3 2 3 4 3 1 2 4 5 4 4 6 10 17 22 25 26 29 29 29 29 28 27 25 23 21 19 17 15 13 11 10 8 7 5 4 3 3 2 2 2 2 2 1 0 0 1 2 3 3 4 5 5 5 5 6 6 6 7 7 8 9 9 10
3 4 5 3 2 1 3 3 3 3 3 2 2 3 4 4 6 3 1 1 4 2 4 2 3 5 1 1 2 3 4 4 3 2 9 16 21 24 29 32 33 32 31 29 27 25 24 22 20 18 16 14 12 10 8 7 6 5 4 4 3 3 4 4 3 2 2 2 2 3 4 4 5 5 5 5 6 6 6 6 7 7 8 8 9 9
4 2 4 1 1 2 1 4 4 4 4 5 3 5 3 2 4 3 1 2 2 3 4 1 4 5 2 3 2 3 4 6 4 3 7 13 20 25 31 35 36 34 32 29 28 26 24 23 21 18 16 14 13 11 9 8 8 7 6 6 6 6 6 5 5 4 4 5 5 5 6 6 6 6 6 6 6 7 6 6 7 7 7 8 8 9
4 1 4 0 2 2 2 4 3 4 3 4 3 3 4 3 1 2 2 2 2 3 4 3 5 5 4 4 2 3 8 8 6 5 6 12 21 28 33 37 37 35 32 31 29 28 26 24 21 19 17 16 14 13 11 10 9 9 9 9 9 9 8 7 7 7 8 8 8 8 8 7 7 7 7 6 6 6 5 6 6 6 7 7 8 8
4 2 3 1 1 1 2 2 3 1 2 3 2 1 2 2 4 3 2 3 3 4 5 6 6 5 4 5 6 8 10 9 8 7 9 16 25 31 35 38 39 37 35 34 32 30 27 25 22 20 18 16 15 14 13 12 11 11 11 12 12 11 10 10 10 10 10 10 9 9 8 8 7 7 6 5 5 5 5 6 7 8 9 9 9 10
3 3 3 2 1 2 2 3 6 7 4 2 3 2 1 1 2 1 1 2 3 3 3 5 8 6 3 3 6 6 5 6 10 10 11 19 27 32 37 39 40 39 38 36 34 31 28 25 23 21 19 17 16 15 14 14 13 13 14 14 14 13 13 13 12 12 11 10 10 9 8 7 7 6 6 5 5 6 7 8 9 10 11 12 12 13
3 3 3 2 1 3 5 4 4 6 5 4 5 6 6 4 3 1 4 2 2 2 3 3 7 7 3 2 3 3 2 5 11 11 11 19 29 34 36 37 37 39 39 37 33 29 27 26 24 23 21 20 18 17 16 16 16 16 16 16 16 15 14 14 13 12 11 11 10 9 8 7 6 5 5 5 6 8 9 11 12 13 14 15 15 16
3 3 3 2 4 5 5 3 1 2 1 2 3 3 5 5 5 5 6 3 1 2 1 2 4 6 1 1 2 4 5 6 10 14 14 19 26 29 30 31 33 36 36 33 31 29 28 27 25 24 23 21 20 18 18 18 18 17 17 18 17 16 15 15 14 13 12 11 9 8 7 6 5 5 6 7 8 10 11 13 14 15 16 17 18 20
3 2 2 1 3 2 4 3 2 2 2 1 3 2 4 4 3 3 4 2 2 3 2 2 5 5 1 2 2 3 5 5 8 16 18 17 19 24 28 31 33 33 32 31 31 30 29 28 27 27 25 23 22 20 20 19 19 18 19 19 18 17 16 15 13 12 11 10 8 7 6 6 6 7 8 9 10 11 13 14 16 17 19 20 22 23
5 2 3 2 1 3 3 2 1 1 0 3 3 2 3 4 4 2 1 1 2 4 6 3 8 6 2 1 1 3 2 1 6 13 16 15 16 21 27 31 32 31 30 31 32 32 31 31 31 30 28 26 24 22 20 19 19 19 20 19 19 18 16 15 13 12 10 9 8 7 7 7 8 8 9 10 11 13 14 16 18 20 22 23 24 26
7 2 4 5 6 6 4 3 4 2 1 2 2 3 4 6 7 4 2 3 5 4 6 6 9 4 3 2 1 4 4 1 3 7 11 14 15 18 23 27 29 31 32 34 35 34 34 33 33 32 31 29 26 24 21 20 19 20 20 20 19 18 17 15 13 12 11 10 9 9 9 9 9 10 11 12 13 15 16 19 21 23 24 26 26 27
3 0 5 7 8 8 5 4 4 4 4 4 5 6 6 6 8 6 3 4 5 3 5 11 7 2 4 4 2 3 2 1 3 6 11 15 15 15 18 23 28 31 35 36 36 36 35 35 34 33 32 31 28 25 22 20 20 20 21 21 20 19 17 15 15 14 12 12 11 11 11 11 11 12 13 14 16 17 19 21 23 25 27 28 28 29
3 2 7 8 11 8 3 4 5 5 6 7 7 8 8 7 8 8 6 6 5 3 9 11 4 3 9 6 4 6 5 3 5 10 14 16 15 14 15 19 25 30 34 35 36 37 37 36 35 33 32 31 29 26 23 21 21 21 22 22 20 19 18 17 16 16 14 14 14 14 13 13 13 14 15 16 18 19 21 23 25 28 30 30 31 31
3 5 7 6 9 8 3 5 5 5 4 5 7 10 10 9 10 11 11 9 7 7 13 9 5 7 9 4 6 8 6 5 8 11 12 11 12 14 15 17 22 27 32 35 36 37 37 37 37 35 33 31 28 26 23 22 22 23 23 23 22 21 19 18 18 18 16 16 16 16 16 15 15 15 17 18 20 21 23 25 27 30 31 32 32 33
3 3 4 5 7 8 4 5 5 6 4 4 8 12 10 9 11 12 11 8 8 11 12 6 3 8 7 4 6 7 4 6 8 8 8 9 10 12 13 17 20 23 27 30 32 33 33 34 35 35 33 30 27 26 25 24 23 24 24 23 23 22 20 20 20 19 18 18 18 18 18 18 17 18 19 20 22 23 24 26 28 31 33 33 33 34
2 2 2 4 4 7 4 4 4 6 5 7 13 12 6 7 9 8 6 3 4 8 8 4 7 11 6 5 6 9 9 10 12 13 14 13 12 13 16 20 22 22 23 25 26 27 27 26 26 27 27 26 25 26 26 24 23 23 24 23 23 22 21 21 20 19 19 19 20 20 21 20 20 21 22 22 23 25 25 27 29 32 34 34 35 35
3 1 3 3 4 7 4 5 6 4 2 8 17 12 8 9 9 5 5 6 8 8 7 6 9 10 4 4 5 11 12 12 14 17 18 18 18 19 21 23 23 22 22 23 23 21 19 17 16 17 18 18 20 22 23 23 23 23 23 23 22 21 21 21 21 21 21 21 22 23 24 23 24 24 24 25 25 26 26 28 30 32 34 35 36 36
4 4 2 3 5 5 2 5 7 4 1 9 14 12 13 13 8 3 3 8 10 8 7 8 8 5 2 4 5 8 9 10 13 17 18 19 19 18 20 20 20 19 19 17 15 13 12 11 11 12 13 14 16 18 19 20 21 21 21 20 20 20 21 22 22 23 23 24 25 26 26 26 27 27 27 27 27 27 27 28 30 33 35 36 37 37
5 5 4 4 4 2 0 3 5 5 7 7 4 7 14 15 12 9 10 11 10 7 5 5 3 0 3 5 8 9 9 9 13 16 16 14 14 14 17 17 16 16 14 13 12 12 11 11 12 13 14 15 16 16 15 17 19 19 18 18 19 21 22 23 24 25 26 27 28 29 29 29 29 29 29 29 28 28 28 29 31 33 35 36 37 38
6 6 3 2 2 1 2 3 4 7 8 3 4 1 6 9 11 12 11 10 8 8 7 5 4 5 9 13 15 14 13 12 13 15 13 11 11 12 13 13 13 14 14 13 13 13 13 14 14 15 16 17 17 16 16 17 18 17 17 18 20 21 23 25 27 28 29 30 31 32 32 31 31 30 30 29 28 28 29 30 33 34 35 36 37 38
7 6 2 2 3 2 2 5 7 4 2 1 4 5 2 4 4 3 5 8 8 9 8 7 8 11 15 18 17 13 13 12 13 16 14 11 11 12 11 12 12 13 13 13 13 14 14 14 14 15 16 16 16 16 16 16 16 15 16 18 21 23 26 28 29 31 32 32 33 32 32 32 31 31 30 29 28 28 30 32 34 35 36 37 38 39
6 6 3 3 4 3 3 6 3 4 4 3 1 2 4 6 5 5 4 8 7 7 9 9 9 13 14 15 13 10 8 7 10 15 16 12 12 13 13 12 11 12 13 13 13 13 13 13 13 13 14 15 15 14 13 13 13 15 17 20 23 25 27 29 30 31 31 31 31 30 30 31 31 30 29 28 28 29 31 33 35 36 37 38 39 39
3 4 5 6 4 3 4 4 2 3 7 6 4 4 5 7 7 7 4 7 5 7 15 14 10 11 11 9 6 4 2 1 4 10 11 9 10 11 11 12 12 12 13 13 13 13 12 12 12 12 13 14 13 12 11 11 13 16 19 22 24 25 26 27 28 28 28 28 28 28 29 30 30 29 29 28 29 31 33 35 36 37 38 39 40 40
2 0 3 4 2 3 4 4 5 6 6 3 3 2 4 10 10 8 2 6 5 10 19 15 9 11 11 10 9 8 4 2 5 10 8 5 6 8 9 11 13 13 14 13 13 12 11 12 12 12 14 14 12 11 11 13 14 16 18 20 22 24 25 25 26 27 27 28 28 29 29 29 29 29 28 29 31 33 35 36 37 37 38 39 40 40
2 1 1 4 4 4 4 4 4 4 3 0 3 3 8 13 13 9 2 8 5 10 17 15 12 14 14 13 13 9 6 7 8 10 6 4 4 6 8 11 13 14 14 13 12 12 13 14 14 15 16 14 12 13 13 15 16 17 18 18 19 21 22 23 25 26 27 29 29 29 29 29 29 29 29 31 33 34 36 37 37 37 38 39 39 39
0 0 1 4 5 6 7 4 2 3 3 2 4 10 15 13 8 3 5 6 7 12 15 16 15 15 15 17 17 12 12 14 12 11 6 4 6 8 10 13 15 15 14 13 13 15 15 16 18 18 17 15 14 15 16 18 19 19 18 18 19 20 21 22 24 26 28 30 30 30 30 29 30 30 31 32 34 36 36 36 36 37 38 38 38 38
3 1 1 2 3 3 4 3 2 4 4 7 8 12 15 9 1 5 5 8 14 15 15 18 16 13 15 20 21 19 16 14 14 13 9 7 10 11 13 15 17 17 16 15 15 17 18 20 21 20 19 17 17 18 20 20 21 21 20 20 20 21 22 23 25 27 28 30 30 30 30 30 30 31 32 33 35 36 36 35 36 37 37 37 38 38
5 3 2 3 3 2 1 2 3 6 4 17 16 6 4 5 4 6 9 12 16 14 13 17 17 14 15 19 21 21 18 14 14 14 11 11 14 15 16 17 17 18 18 16 16 19 20 23 24 23 21 20 20 21 22 22 22 22 21 22 22 22 24 26 27 28 29 30 30 30 30 31 31 31 33 34 35 35 35 35 35 36 36 36 37 37
3 3 3 3 3 4 3 6 5 2 8 26 22 6 10 15 10 6 10 13 15 14 13 15 15 15 16 17 18 20 19 17 15 13 13 16 17 18 19 19 18 18 18 17 18 21 22 25 26 25 25 24 24 24 23 23 23 22 22 22 23 24 26 28 28 29 29 30 30 30 31 31 31 32 33 34 34 34 34 35 34 34 35 35 36 36
3 3 4 3 3 5 5 6 4 1 12 28 24 13 17 23 17 9 10 11 13 14 14 13 13 13 15 16 18 19 17 15 14 15 17 18 19 19 20 20 19 19 18 19 21 22 23 24 26 27 28 28 26 26 25 25 24 23 22 23 24 26 28 29 30 30 30 30 30 30 30 31 31 32 33 33 33 34 34 33 33 33 34 34 34 33
1 2 4 2 2 4 4 4 4 3 11 25 24 16 16 19 18 16 14 13 13 13 13 13 13 13 14 16 18 18 16 15 15 17 18 19 20 20 20 21 21 21 21 22 23 23 24 25 26 28 30 30 29 28 28 26 24 23 22 23 25 27 29 30 31 30 30 30 30 30 30 31 31 32 32 32 32 33 32 32 32 33 34 33 32 32
2 4 4 1 2 4 3 3 5 5 12 23 25 20 17 16 17 18 18 18 17 16 15 16 16 16 15 15 16 16 15 15 16 18 18 19 21 21 20 22 23 24 24 24 24 24 26 26 27 28 29 30 30 30 29 27 24 22 23 24 26 28 30 31 31 31 30 30 30 30 31 32 32 31 31 31 31 31 31 31 32 33 33 32 32 32
3 5 3 2 4 3 1 2 4 4 11 20 24 22 20 18 18 19 19 19 19 18 18 18 17 17 17 16 17 17 17 17 18 20 20 21 22 22 22 23 24 26 27 26 25 25 27 28 30 30 30 30 31 31 29 26 23 22 23 25 27 29 31 32 32 31 31 30 30 31 31 32 32 32 31 31 30 30 30 31 31 32 32 31 30 31
4 5 4 2 3 2 0 2 3 2 4 14 22 24 22 19 20 20 20 20 21 20 21 20 19 19 19 20 21 21 20 20 21 22 22 23 23 24 23 23 23 25 27 27 27 26 26 28 30 31 30 29 29 30 29 25 23 23 24 26 28 29 31 32 32 32 31 31 31 31 32 32 32 32 31 31 30 29 30 30 30 31 31 30 28 29
6 4 3 3 3 5 3 7 9 4 3 11 21 25 23 21 21 21 22 22 23 23 23 21 21 21 21 23 25 24 23 24 25 25 25 25 26 25 24 23 24 25 26 27 28 26 25 26 28 30 29 28 27 29 29 26 24 24 25 27 28 29 31 32 33 32 32 31 31 31 32 32 31 31 31 30 30 30 30 30 29 29 30 30 29 28
10 9 7 6 5 4 5 13 18 13 9 13 20 22 22 22 23 24 24 24 23 23 22 22 21 22 23 24 25 26 26 27 27 26 26 27 27 27 25 25 26 26 24 25 25 25 25 26 27 28 27 26 28 30 30 27 25 25 27 28 28 29 31 32 33 33 32 31 31 31 31 31 30 30 29 29 29 30 31 31 30 28 26 27 29 29
Wind_Direction
155 147 192 223 211 192 200 200 204 190 136 143 142 149 190 215 256 256 251 270 189 189 269 247 229 251 258 277 13 70 121 121 136 148 157 165 171 176 174 161 144 131 113 97 99 110 113 119 117 114 110 102 101 100 102 106 104 99 98 102 98 92 90 92 94 92 94 90 73 74 63 75 96 93 17 320 287 264 266 261 261 260 257 259 261 263
135 175 225 230 205 189 204 206 205 157 111 118 148 191 240 222 250 262 251 297 353 174 274 296 256 263 256 295 5 78 123 126 159 164 164 164 160 162 159 145 136 118 110 113 114 113 112 112 110 107 106 106 107 109 110 108 104 103 103 102 97 95 97 94 91 91 93 91 82 78 76 73 80 81 62 40 34 18 350 320 304 302 298 292 284 273
131 219 239 230 149 135 140 169 186 198 161 136 139 182 261 233 267 288 294 339 22 173 272 308 244 267 264 74 29 43 119 146 182 178 167 163 159 156 151 141 137 128 124 127 119 113 111 109 107 108 109 110 110 109 107 104 103 104 103 100 99 99 99 94 91 89 87 85 81 79 78 75 80 85 79 71 68 61 47 32 15 3 351 341 327 308
187 243 242 205 143 135 116 124 142 146 165 186 168 187 248 231 54 283 303 345 351 180 276 207 225 271 270 98 40 44 117 123 142 162 158 161 162 154 149 143 139 135 128 124 118 115 114 112 111 110 109 107 106 104 102 102 101 101 99 98 98 97 95 93 91 88 83 82 81 81 81 83 84 82 79 78 77 73 69 66 60 52 45 30 14 2
223 244 188 139 141 161 181 148 135 142 214 239 211 207 231 221 207 230 286 328 322 350 10 141 302 288 260 239 242 82 115 111 116 141 146 157 159 151 149 146 142 134 126 122 119 117 115 114 111 109 107 105 104 102 100 99 98 97 96 95 95 93 92 90 88 85 82 81 80 79 78 76 76 79 81 78 75 74 68 62 56 49 44 35 25 19
247 241 136 115 112 157 179 196 175 167 200 280 233 213 222 222 220 230 329 353 358 342 332 77 298 289 299 274 220 165 138 109 112 136 142 154 155 154 152 146 142 133 127 124 121 120 117 114 112 109 108 107 104 101 98 96 94 93 92 91 90 88 86 84 80 78 76 74 73 73 74 75 77 80 78 69 65 63 56 49 46 41 35 29 22 16
252 245 150 151 152 155 182 232 216 168 146 286 252 210 212 204 198 197 148 81 294 272 312 48 217 266 319 313 244 147 140 68 45 167 164 166 161 162 158 149 144 136 132 129 124 121 118 115 114 112 110 107 102 98 95 93 92 91 90 89 88 86 83 80 78 77 75 73 74 72 72 74 72 65 62 60 55 51 48 44 40 37 31 25 20 14
198 153 104 146 150 160 198 239 216 160 136 233 253 159 162 169 181 184 162 178 232 259 320 15 157 263 291 286 334 94 112 322 279 235 218 191 177 170 163 154 149 142 137 133 128 124 122 119 117 113 109 105 100 97 96 94 92 90 89 88 87 86 85 83 81 81 79 75 73 69 62 62 60 57 60 61 55 52 51 41 35 34 27 22 19 14
153 170 185 162 149 185 207 215 182 159 152 235 197 116 128 149 157 145 135 173 276 26 306 303 107 269 268 271 1 56 291 276 242 214 225 207 189 179 171 162 154 148 142 137 133 129 127 124 119 114 109 104 101 100 98 95 93 90 88 87 86 86 84 84 82 79 76 71 67 63 55 55 58 58 61 61 55 52 46 27 23 23 15 16 13 10
106 201 203 155 157 204 203 210 177 167 186 190 138 97 83 85 91 93 110 128 63 58 251 247 188 219 272 280 346 58 265 260 222 195 218 209 195 186 179 169 160 154 148 142 139 136 132 127 121 116 112 108 106 104 99 96 93 90 87 86 85 83 81 80 78 71 68 65 59 55 49 50 57 59 61 60 47 41 35 13 6 7 7 8 4 5
331 141 202 157 184 186 141 100 155 152 150 142 116 70 53 39 46 47 64 93 71 277 248 237 202 193 267 277 224 199 230 215 155 172 216 208 200 194 185 175 167 160 154 149 146 142 137 131 126 121 118 115 111 106 102 98 95 92 90 84 77 78 76 74 72 62 57 56 48 44 43 44 51 56 56 42 24 25 15 358 1 4 2 2 3 7
330 138 251 219 184 141 104 68 42 80 120 121 96 82 76 346 14 26 359 50 134 253 258 269 240 185 229 258 239 227 234 204 167 182 196 197 200 197 187 179 173 166 161 157 152 147 141 136 132 129 125 121 116 111 107 104 100 95 91 82 71 73 74 69 67 58 50 49 42 37 37 34 36 36 20 358 357 1 354 355 6 7 6 8 7 8
299 240 262 250 191 167 119 79 45 33 73 99 98 105 99 341 1 352 311 246 225 245 260 309 314 215 230 239 233 224 216 219 230 218 198 193 195 195 189 182 177 173 168 163 157 151 147 143 139 137 133 128 123 121 118 112 109 101 92 83 71 71 74 69 66 58 47 43 36 28 19 9 7 357 343 338 340 344 347 358 8 8 9 8 3 2
285 289 277 137 225 199 167 144 158 182 146 150 144 132 131 121 128 268 267 262 263 257 267 288 251 245 262 248 221 222 224 249 263 251 219 201 195 192 188 184 181 178 173 168 163 157 154 151 147 145 143 139 134 133 132 125 118 111 98 89 75 72 75 70 65 55 45 39 28 9 351 343 337 329 328 328 330 334 339 344 350 351 354 357 357 359
200 296 212 177 210 188 182 181 161 143 143 179 161 135 146 155 171 214 213 216 251 281 294 271 208 202 221 222 219 242 274 291 274 255 231 211 201 194 188 186 186 183 178 174 168 165 162 157 154 154 153 151 149 146 147 143 136 131 121 107 86 79 82 80 80 63 45 40 15 345 331 325 316 312 314 314 317 321 325 330 336 340 345 349 352 357
164 266 250 249 21 164 181 186 125 112 122 215 131 113 164 183 156 159 191 175 177 305 298 214 218 222 195 217 279 283 295 311 294 253 214 204 201 195 192 192 190 186 182 179 175 172 169 165 163 164 164 163 163 161 162 163 159 158 160 152 128 119 126 137 148 127 87 65 334 308 294 295 293 293 295 297 300 303 308 315 322 328 334 338 342 346
135 272 288 6 20 152 181 181 122 118 174 163 130 173 216 182 122 108 261 89 93 269 270 194 247 284 324 302 316 349 321 306 310 243 187 189 192 194 196 196 193 191 186 182 179 177 174 172 172 173 173 173 174 174 176 179 182 184 192 199 200 198 194 194 195 195 206 219 248 257 255 263 266 268 273 274 277 283 289 295 302 309 314 319 321 322
145 263 289 92 169 290 85 119 69 44 116 125 183 209 194 123 95 101 244 346 59 244 271 223 239 267 269 264 317 5 305 271 252 206 178 183 189 196 201 199 196 194 189 186 184 182 181 180 180 179 180 183 184 187 190 194 198 200 206 213 215 217 213 209 209 212 218 222 230 234 234 240 243 244 250 253 258 265 269 273 279 286 290 294 298 300
141 225 290 96 177 269 44 106 73 16 65 118 179 179 116 132 154 113 171 221 214 244 272 272 260 255 216 215 227 226 235 230 209 192 189 192 195 200 203 202 200 196 193 192 190 188 187 186 186 186 186 190 193 196 200 203 209 213 216 220 220 222 221 218 218 218 219 220 222 226 226 228 231 232 238 242 246 253 259 269 278 286 292 295 296 296
131 169 272 301 221 220 44 116 176 221 25 65 91 92 65 150 169 160 166 174 190 237 264 276 283 274 224 195 182 201 218 203 178 187 205 205 202 202 203 203 201 198 195 194 192 191 191 190 191 193 194 197 200 203 207 211 215 218 222 224 224 225 224 221 220 219 219 220 220 221 221 223 227 231 239 246 257 271 283 294 301 306 308 307 306 305
116 169 229 292 297 166 176 213 191 183 170 131 145 173 209 136 120 203 230 137 144 191 233 258 270 269 252 186 181 210 235 192 186 195 204 207 206 206 206 204 202 199 196 196 195 195 195 195 197 199 201 204 207 211 214 216 220 222 225 227 226 226 224 222 223 221 221 221 220 223 225 230 239 249 264 277 293 306 313 317 319 319 317 315 314 312
153 170 173 180 186 185 226 246 200 189 180 166 183 190 186 168 132 209 249 207 138 188 198 221 262 267 250 165 182 234 263 212 206 206 204 207 209 210 209 207 205 203 202 200 199 199 200 201 203 205 206 208 212 216 218 221 225 225 227 228 227 226 225 224 225 224 224 225 225 231 236 243 255 267 286 307 319 325 328 328 328 326 323 321 319 317
141 127 139 195 211 210 245 277 150 193 171 146 198 189 174 175 161 190 229 223 158 226 151 113 265 273 250 174 225 245 261 259 225 211 212 215 213 213 213 211 210 210 208 205 203 204 206 208 210 212 213 215 217 220 222 225 228 228 230 230 229 228 227 227 227 226 227 229 231 236 241 249 267 288 309 322 327 329 330 330 329 328 326 324 322 320
133 130 145 251 298 307 309 336 36 58 76 174 231 163 154 185 178 192 215 177 171 221 131 95 256 264 272 192 235 270 273 269 225 212 216 220 216 215 216 214 214 215 213 209 208 210 213 215 218 218 219 221 222 223 226 228 230 231 232 232 232 231 230 229 231 230 230 231 232 239 251 268 287 303 314 320 323 324 327 328 327 327 325 323 322 320
172 167 138 152 307 334 337 335 340 353 125 210 233 193 169 157 114 101 162 128 235 206 145 174 250 251 271 257 2 11 13 235 218 214 216 222 221 219 218 216 217 217 214 212 213 217 219 220 223 223 224 225 226 228 230 232 234 235 235 236 235 233 231 232 234 233 232 232 238 249 263 279 292 301 307 311 315 319 323 326 327 327 325 323 322 320
169 176 152 174 214 224 221 213 208 216 206 201 215 208 205 178 158 162 169 186 232 195 152 217 252 266 322 317 12 17 29 11 249 216 216 226 228 227 224 220 219 218 215 214 217 222 224 225 227 227 228 229 230 232 234 237 239 239 238 239 237 235 234 235 235 234 233 237 245 254 264 275 285 292 299 305 311 316 321 325 327 328 326 324 322 319
128 248 188 200 225 222 209 210 195 147 146 192 212 202 204 197 180 172 157 188 208 176 203 237 245 293 287 253 252 309 303 247 249 216 215 224 227 230 227 221 221 219 217 219 223 228 229 230 231 231 233 234 234 236 239 242 245 245 243 241 239 239 237 235 236 236 238 242 248 256 263 272 281 289 298 306 313 318 322 325 327 327 326 324 322 319
96 225 212 216 235 231 168 176 190 155 170 198 206 208 210 197 179 182 203 206 166 163 245 248 202 222 255 229 205 252 243 217 226 218 217 220 220 222 221 221 224 223 223 225 228 232 234 235 236 237 238 238 238 239 242 246 249 249 247 245 244 243 241 239 240 240 241 246 251 258 266 273 282 292 303 310 315 318 320 323 324 325 325 323 321 319
131 221 212 199 234 240 163 160 181 175 200 203 201 218 219 199 187 198 218 215 180 206 253 254 171 212 248 220 193 221 221 214 219 215 214 217 219 222 221 223 228 228 229 231 233 237 240 243 243 244 244 242 241 242 244 247 249 249 248 246 243 244 245 243 242 242 244 248 255 262 269 275 285 296 304 308 312 314 317 320 322 324 323 322 320 318
151 223 192 168 233 252 212 168 171 188 219 231 228 231 220 203 204 210 221 220 204 229 256 270 230 241 244 197 203 224 230 235 238 237 235 231 233 238 236 237 239 240 240 241 243 247 251 253 253 251 250 247 247 248 248 248 249 251 250 247 245 246 247 244 243 244 248 253 259 265 270 276 286 295 300 303 307 310 313 316 320 322 322 320 318 316
185 213 120 136 227 255 225 147 157 199 211 233 247 240 195 196 224 217 210 195 200 242 256 257 258 261 244 172 206 242 249 246 252 257 257 257 257 256 252 251 252 253 254 256 258 261 263 263 259 255 250 249 251 251 250 250 251 253 252 250 249 250 247 244 245 249 251 256 261 266 271 278 284 290 295 299 303 305 308 312 315 319 321 320 317 315
188 201 55 105 219 244 219 155 163 176 180 250 254 238 182 200 222 193 177 192 201 226 238 232 247 260 242 156 202 243 244 237 243 249 254 260 261 256 255 257 259 261 263 265 265 265 263 257 251 249 248 248 250 251 250 250 252 253 253 253 253 251 245 244 247 250 252 256 260 265 271 276 280 286 291 295 298 299 301 306 311 316 318 318 316 314
166 166 138 171 218 244 223 157 153 136 202 257 253 220 193 210 220 181 216 224 210 208 218 232 244 250 197 160 199 244 236 223 237 247 252 257 258 258 259 260 263 265 263 259 253 246 242 239 242 248 250 252 254 255 255 254 255 257 258 258 256 251 245 245 248 250 252 255 259 264 270 274 278 283 287 289 292 293 296 301 307 312 315 316 315 313
174 183 188 186 202 236 354 117 136 170 220 243 248 181 189 203 204 207 233 233 213 199 212 239 259 195 163 191 214 236 238 234 247 255 257 256 255 259 262 262 261 255 244 234 229 229 235 243 247 249 248 248 250 252 254 254 255 258 258 257 254 250 248 249 251 252 254 255 259 263 268 273 277 280 282 284 286 288 292 299 305 310 313 313 313 312
180 191 196 156 145 128 65 109 179 216 230 257 6 23 190 189 188 202 234 246 222 207 217 239 252 234 232 233 234 243 253 258 259 258 256 256 256 257 257 254 246 236 228 226 231 237 243 246 247 247 244 242 240 240 243 246 248 249 248 250 251 251 253 255 255 256 257 258 261 264 268 272 274 275 277 278 281 286 292 298 305 309 311 311 311 310
182 183 170 125 137 118 126 187 207 240 261 338 354 346 58 103 131 175 263 266 232 209 205 211 228 237 241 244 248 254 261 267 270 266 261 258 258 254 245 240 235 231 231 235 239 244 246 245 243 241 238 237 236 237 240 242 242 242 244 249 253 256 258 260 260 261 262 262 264 266 268 270 271 271 272 275 280 286 293 300 305 309 310 310 310 309
180 173 160 186 189 151 175 211 236 331 285 233 251 244 172 149 149 163 229 258 239 197 181 186 221 238 241 247 254 257 261 283 290 276 267 260 255 249 242 237 233 231 236 239 242 244 242 239 238 235 233 233 232 234 239 242 244 248 252 256 259 262 264 265 265 266 266 266 267 267 268 268 268 268 270 274 282 289 295 301 306 308 309 309 309 309
183 183 187 206 207 136 156 221 263 282 256 234 200 200 182 172 165 153 199 270 279 195 184 184 209 229 233 241 238 218 216 345 302 276 266 254 243 236 233 235 236 239 244 244 242 241 238 236 234 229 226 225 226 234 248 259 262 262 261 261 264 268 270 271 272 272 271 270 269 268 267 266 265 266 271 277 285 291 297 303 306 307 307 308 308 308
37 278 196 208 205 141 172 221 217 227 258 253 189 175 135 154 145 106 85 279 270 196 187 182 196 219 224 217 188 156 129 148 254 269 260 222 220 229 235 244 248 250 249 244 239 238 235 230 227 226 226 228 238 257 273 281 280 275 270 268 267 269 270 272 274 275 273 271 269 267 265 264 265 268 274 282 288 294 300 304 305 305 306 306 306 306
47 24 212 214 210 188 194 217 228 242 267 163 163 143 131 142 129 94 327 271 243 189 183 180 193 213 216 202 176 154 163 195 241 274 258 194 228 255 256 260 258 254 248 240 235 234 230 231 237 242 243 246 260 277 286 289 287 284 280 276 272 271 271 271 273 273 271 269 267 265 264 264 267 272 278 285 291 297 301 303 304 304 305 305 305 306
128 304 228 218 220 213 212 224 274 265 228 189 168 152 138 124 106 115 246 231 179 177 182 179 191 207 207 191 178 185 217 228 248 269 252 226 271 278 272 271 264 254 244 235 234 236 238 245 252 253 253 258 272 283 288 287 286 285 283 280 279 280 278 274 272 271 269 268 266 265 265 266 270 276 282 288 294 299 301 301 303 304 304 304 305 306
173 176 233 218 208 215 232 240 293 279 219 160 150 155 144 126 156 225 196 152 155 170 179 182 191 206 208 202 199 210 231 243 250 254 247 257 279 281 275 268 257 245 236 230 235 244 250 256 256 253 255 264 275 281 283 282 280 281 280 280 282 283 279 274 272 270 268 267 265 265 266 269 273 278 285 291 295 298 299 301 302 303 303 303 304 305
174 153 199 223 175 141 280 227 229 282 197 142 134 136 172 183 209 182 152 151 161 169 179 189 199 209 213 215 218 224 234 241 244 248 253 264 274 276 271 262 247 236 233 236 247 258 261 260 257 255 259 265 271 274 275 275 275 275 277 279 281 279 276 273 271 269 267 266 265 266 267 271 275 282 288 293 296 297 299 300 301 301 302 303 303 304
193 168 191 232 183 149 201 217 207 283 164 155 151 164 208 208 208 164 157 175 179 179 187 199 209 217 219 223 226 230 235 239 245 255 263 268 274 275 271 261 243 231 236 249 260 264 263 260 258 257 260 264 267 269 271 271 271 272 274 277 278 275 274 272 270 268 267 266 266 267 269 273 279 286 291 293 295 296 298 299 300 300 301 302 302 303
232 184 175 208 203 170 192 216 207 114 166 174 177 191 203 210 217 199 184 194 194 194 203 212 221 228 229 232 232 231 235 242 255 268 272 276 281 279 273 265 248 239 247 258 262 261 260 259 259 258 260 263 265 267 268 268 268 271 276 278 277 275 273 271 269 267 267 267 267 269 273 278 284 289 292 293 294 296 297 298 299 300 300 301 302 303
260 144 149 153 257 251 238 202 176 151 176 183 191 205 212 216 220 214 212 219 218 219 227 237 246 252 249 241 233 229 235 247 265 277 280 283 283 279 274 266 251 245 253 260 260 259 258 258 258 258 260 262 263 265 266 266 267 273 278 280 278 276 274 271 269 268 268 268 270 272 277 283 287 290 291 292 294 295 297 298 298 299 301 302 303 303
257 165 160 166 246 259 260 181 160 168 184 186 193 208 218 221 224 226 228 233 237 243 247 253 263 267 259 244 229 231 246 262 276 285 285 283 281 278 275 267 256 251 257 263 265 262 258 257 258 258 260 262 264 264 263 262 267 275 280 281 279 277 274 271 269 269 269 270 273 276 282 286 289 290 291 292 294 295 296 297 299 300 302 303 303 303
224 164 170 241 227 206 191 180 167 173 192 194 199 211 220 223 226 230 234 236 241 247 251 255 262 261 254 247 239 244 260 273 282 286 285 282 281 279 276 271 264 260 261 265 267 264 261 261 260 260 261 263 263 262 259 260 268 277 280 281 280 277 274 271 269 269 270 272 275 280 284 287 288 289 290 291 293 293 295 297 300 301 302 303 303 303
142 161 187 204 206 208 137 146 138 100 223 214 210 214 221 227 229 232 238 241 243 247 251 255 259 259 258 257 252 252 263 276 282 283 282 280 279 278 276 275 273 268 266 267 268 268 267 268 266 263 264 264 262 258 255 259 269 277 281 282 279 276 273 271 269 270 271 273 278 282 284 285 286 288 290 290 291 293 295 298 301 301 301 302 301 300
139 187 191 130 189 240 217 167 167 165 255 229 220 220 225 230 232 235 241 246 249 253 257 259 262 263 264 263 258 257 265 277 281 281 279 277 275 275 276 278 278 275 272 269 269 270 272 273 270 265 263 263 259 253 252 259 270 277 279 278 276 274 271 269 269 269 271 275 279 282 282 283 285 287 288 289 291 294 297 299 300 301 302 303 302 301
191 207 193 175 211 230 171 178 191 203 230 240 238 238 236 234 236 239 245 253 258 261 262 263 264 264 264 264 264 264 269 275 277 276 275 274 273 274 277 278 277 276 271 267 268 271 275 275 269 262 261 261 256 250 251 259 269 274 275 273 272 270 269 268 268 269 272 276 279 280 281 282 284 285 286 288 292 296 299 301 300 299 300 301 301 301
Height
1534 1537 1537 1533 1532 1534 1534 1534 1534 1534 1537 1540 1541 1543 1543 1543 1540 1538 1538 1537 1537 1538 1535 1534 1535 1532 1528 1529 1532 1532 1531 1531 1531 1531 1531 1531 1531 1531 1531 1530 1529 1529 1528 1527 1526 1526 1525 1526 1526 1527 1527 1528 1528 1529 1529 1529 1530 1530 1530 1530 1530 1530 1531 1531 1532 1533 1534 1535 1535 1535 1535 1535 1535 1536 1536 1536 1537 1537 1538 1538 1539 1539 1539 1539 1540 1540
1534 1537 1532 1526 1528 1531 1532 1534 1535 1537 1539 1539 1541 1542 1543 1544 1541 1536 1537 1537 1538 1538 1534 1534 1535 1530 1527 1530 1533 1532 1531 1531 1531 1530 1531 1531 1532 1532 1532 1531 1531 1530 1529 1528 1527 1527 1526 1526 1526 1527 1527 1528 1528 1528 1529 1529 1529 1530 1530 1530 1530 1531 1532 1532 1533 1533 1534 1535 1535 1536 1536 1536 1536 1536 1537 1537 1537 1537 1537 1538 1538 1538 1538 1538 1539 1539
1537 1534 1526 1525 1530 1532 1533 1535 1536 1538 1539 1540 1542 1543 1542 1543 1541 1536 1536 1538 1538 1538 1535 1535 1535 1528 1526 1532 1534 1532 1531 1531 1531 1530 1530 1531 1532 1532 1532 1532 1532 1531 1531 1530 1528 1528 1527 1527 1527 1528 1528 1529 1529 1529 1529 1529 1530 1530 1531 1531 1531 1532 1533 1533 1534 1535 1535 1535 1536 1537 1537 1537 1537 1537 1537 1538 1537 1538 1538 1538 1538 1538 1538 1538 1538 1538
1535 1529 1523 1526 1529 1530 1533 1535 1536 1538 1540 1541 1541 1542 1541 1541 1542 1537 1536 1538 1538 1538 1536 1535 1536 1529 1526 1531 1533 1533 1532 1531 1531 1531 1531 1531 1531 1531 1532 1532 1532 1532 1532 1531 1530 1530 1529 1529 1529 1529 1530 1530 1530 1530 1530 1530 1531 1531 1531 1532 1532 1533 1534 1534 1535 1536 1536 1537 1537 1538 1538 1539 1539 1538 1538 1539 1538 1539 1539 1539 1539 1539 1539 1538 1538 1538
1527 1523 1523 1526 1528 1529 1531 1534 1537 1538 1539 1540 1539 1540 1538 1538 1539 1537 1537 1538 1537 1539 1538 1537 1536 1528 1522 1525 1528 1533 1533 1532 1532 1532 1531 1532 1531 1531 1532 1532 1533 1533 1533 1533 1532 1532 1531 1531 1531 1531 1531 1532 1532 1532 1532 1532 1532 1532 1533 1533 1534 1534 1534 1535 1536 1536 1537 1538 1539 1539 1539 1540 1540 1540 1540 1540 1540 1540 1540 1540 1540 1540 1539 1539 1539 1538
1524 1522 1523 1525 1528 1529 1530 1533 1535 1535 1538 1539 1535 1534 1534 1534 1536 1538 1539 1539 1538 1538 1538 1539 1535 1523 1518 1520 1525 1532 1534 1533 1534 1533 1533 1532 1532 1532 1532 1532 1533 1533 1534 1534 1534 1534 1533 1533 1532 1532 1533 1534 1534 1534 1534 1534 1534 1534 1534 1535 1535 1535 1535 1536 1536 1537 1538 1539 1540 1540 1541 1541 1541 1542 1542 1541 1541 1541 1541 1540 1540 1540 1540 1540 1540 1539
1523 1522 1523 1524 1526 1528 1529 1531 1532 1534 1538 1538 1533 1531 1532 1534 1536 1539 1540 1540 1539 1537 1539 1542 1537 1528 1519 1516 1525 1535 1535 1535 1535 1534 1534 1533 1532 1532 1532 1532 1533 1533 1534 1534 1535 1535 1535 1535 1534 1534 1535 1535 1535 1536 1536 1536 1537 1537 1536 1536 1536 1536 1536 1537 1537 1538 1540 1540 1541 1542 1542 1543 1543 1543 1542 1542 1542 1542 1541 1541 1541 1541 1541 1541 1541 1540
1520 1521 1523 1523 1525 1527 1528 1528 1529 1532 1535 1535 1532 1531 1532 1533 1535 1538 1539 1539 1539 1539 1540 1540 1540 1538 1526 1520 1531 1537 1535 1536 1536 1535 1534 1533 1532 1532 1532 1532 1532 1533 1533 1534 1535 1535 1536 1536 1536 1536 1537 1537 1537 1538 1538 1539 1539 1539 1539 1538 1538 1537 1537 1538 1539 1540 1541 1541 1542 1542 1543 1543 1544 1543 1543 1543 1543 1543 1543 1543 1542 1542 1542 1542 1542 1541
1518 1520 1521 1522 1524 1526 1525 1523 1526 1528 1529 1530 1532 1533 1533 1534 1536 1538 1538 1540 1543 1544 1541 1537 1539 1540 1527 1524 1535 1538 1533 1530 1530 1533 1533 1532 1532 1532 1532 1532 1531 1532 1533 1534 1535 1536 1537 1537 1538 1538 1538 1538 1539 1539 1540 1540 1541 1540 1540 1540 1539 1539 1539 1539 1540 1540 1541 1541 1541 1542 1543 1543 1544 1544 1544 1544 1544 1544 1543 1543 1542 1542 1542 1542 1542 1542
1519 1519 1519 1520 1522 1521 1521 1522 1524 1524 1524 1528 1532 1533 1534 1537 1539 1539 1539 1539 1543 1545 1539 1533 1535 1535 1525 1522 1529 1532 1527 1521 1524 1532 1533 1531 1532 1532 1531 1531 1531 1532 1532 1533 1534 1535 1537 1537 1538 1538 1538 1539 1539 1540 1541 1541 1542 1542 1542 1542 1541 1540 1540 1540 1541 1541 1541 1541 1541 1542 1542 1543 1543 1544 1544 1544 1544 1544 1544 1543 1543 1542 1542 1542 1542 1542
1519 1520 1519 1518 1518 1517 1519 1523 1525 1524 1524 1527 1529 1528 1531 1536 1537 1539 1540 1539 1541 1541 1535 1530 1531 1532 1527 1520 1521 1523 1521 1519 1523 1530 1531 1531 1531 1530 1530 1530 1530 1531 1531 1532 1533 1534 1536 1537 1538 1538 1538 1539 1540 1540 1541 1541 1542 1542 1542 1543 1542 1541 1541 1541 1542 1541 1541 1541 1542 1542 1542 1543 1543 1543 1544 1544 1544 1544 1544 1544 1543 1543 1542 1542 1543 1542
1519 1519 1519 1516 1515 1517 1519 1522 1526 1526 1526 1526 1525 1526 1530 1534 1536 1539 1541 1542 1542 1536 1531 1535 1537 1536 1530 1518 1515 1517 1519 1521 1521 1522 1526 1528 1528 1528 1529 1529 1530 1531 1530 1531 1532 1533 1535 1535 1536 1538 1538 1539 1540 1540 1542 1542 1543 1543 1543 1543 1542 1542 1542 1542 1542 1542 1541 1542 1542 1542 1542 1543 1543 1543 1544 1544 1544 1544 1544 1544 1543 1543 1543 1543 1543 1543
1518 1516 1517 1515 1515 1516 1516 1521 1527 1528 1527 1526 1525 1528 1533 1538 1539 1538 1540 1544 1542 1534 1534 1540 1537 1533 1526 1514 1510 1512 1515 1521 1520 1520 1522 1523 1525 1527 1527 1528 1529 1530 1530 1530 1531 1532 1533 1534 1535 1537 1538 1539 1539 1540 1541 1542 1543 1543 1543 1543 1542 1542 1542 1542 1542 1541 1541 1541 1542 1542 1543 1543 1544 1544 1544 1544 1544 1544 1544 1544 1544 1544 1544 1544 1544 1544
1516 1514 1515 1515 1513 1512 1512 1515 1521 1524 1526 1526 1523 1526 1532 1539 1541 1539 1542 1547 1539 1530 1537 1543 1536 1528 1517 1509 1512 1513 1514 1519 1519 1519 1521 1521 1523 1525 1526 1529 1529 1529 1530 1529 1530 1531 1531 1533 1534 1536 1537 1538 1539 1540 1541 1542 1542 1543 1543 1543 1542 1542 1542 1542 1542 1541 1541 1541 1542 1543 1543 1544 1544 1544 1544 1544 1544 1544 1544 1544 1544 1544 1544 1544 1544 1544
1517 1509 1508 1510 1509 1507 1508 1509 1511 1515 1523 1525 1523 1523 1526 1528 1530 1531 1533 1534 1528 1526 1535 1540 1531 1516 1506 1507 1516 1517 1516 1518 1517 1517 1520 1521 1523 1525 1527 1530 1529 1529 1529 1529 1529 1530 1530 1531 1532 1534 1536 1537 1538 1539 1540 1541 1541 1542 1542 1542 1542 1541 1541 1541 1541 1541 1541 1541 1542 1543 1543 1543 1544 1544 1544 1544 1544 1544 1543 1543 1543 1543 1543 1543 1543 1543
1518 1508 1502 1507 1506 1506 1507 1507 1509 1513 1520 1526 1526 1524 1523 1520 1518 1526 1532 1532 1533 1532 1532 1533 1522 1509 1508 1514 1520 1519 1517 1517 1516 1515 1517 1519 1523 1526 1527 1529 1528 1528 1528 1528 1528 1528 1529 1530 1531 1533 1534 1536 1537 1538 1539 1540 1540 1541 1541 1541 1541 1541 1541 1541 1541 1540 1541 1541 1542 1542 1543 1543 1543 1543 1543 1544 1544 1544 1544 1543 1543 1543 1543 1543 1543 1543
1514 1507 1504 1507 1506 1507 1509 1508 1509 1510 1514 1524 1527 1521 1521 1520 1516 1523 1534 1539 1542 1535 1525 1524 1516 1507 1509 1513 1517 1521 1518 1516 1516 1515 1516 1518 1521 1524 1525 1526 1526 1526 1526 1527 1527 1528 1529 1529 1530 1532 1533 1534 1536 1537 1538 1538 1539 1540 1540 1540 1540 1540 1540 1540 1540 1540 1540 1541 1542 1542 1543 1543 1543 1543 1543 1543 1543 1543 1543 1543 1543 1543 1543 1543 1543 1543
1503 1503 1504 1507 1506 1508 1510 1508 1510 1510 1511 1519 1522 1516 1518 1522 1520 1522 1528 1534 1540 1535 1523 1518 1511 1505 1504 1505 1513 1519 1515 1513 1516 1516 1517 1519 1520 1522 1522 1523 1523 1524 1525 1526 1527 1527 1527 1528 1529 1530 1532 1533 1535 1535 1536 1537 1538 1539 1539 1539 1540 1540 1540 1539 1539 1540 1540 1541 1541 1542 1542 1542 1542 1542 1543 1543 1543 1543 1543 1543 1543 1543 1543 1543 1543 1543
1499 1500 1504 1509 1509 1509 1510 1509 1511 1512 1512 1513 1514 1513 1515 1518 1520 1524 1527 1526 1529 1529 1519 1509 1506 1503 1500 1500 1506 1508 1505 1505 1512 1516 1517 1516 1517 1517 1518 1519 1521 1523 1524 1524 1525 1525 1526 1527 1528 1529 1531 1532 1533 1534 1535 1536 1537 1537 1537 1538 1538 1539 1539 1539 1539 1539 1540 1540 1540 1541 1541 1541 1541 1542 1542 1542 1542 1543 1543 1543 1543 1543 1543 1543 1542 1542
1497 1498 1503 1509 1510 1509 1510 1509 1509 1511 1514 1514 1513 1515 1515 1515 1516 1520 1522 1519 1518 1521 1516 1508 1502 1495 1492 1495 1495 1494 1496 1501 1508 1513 1513 1511 1512 1512 1513 1515 1517 1519 1520 1521 1522 1523 1524 1526 1527 1528 1530 1531 1532 1533 1534 1534 1535 1535 1536 1537 1537 1538 1538 1538 1538 1539 1539 1539 1540 1540 1540 1541 1541 1541 1541 1542 1542 1542 1542 1542 1542 1542 1542 1541 1541 1540
1496 1498 1501 1508 1511 1510 1507 1505 1503 1503 1507 1511 1513 1515 1516 1516 1518 1518 1518 1515 1513 1516 1516 1514 1506 1490 1488 1496 1494 1492 1498 1501 1503 1505 1506 1507 1509 1509 1510 1511 1514 1516 1517 1518 1519 1522 1524 1525 1526 1527 1528 1530 1531 1531 1532 1533 1533 1534 1535 1536 1536 1537 1537 1537 1538 1538 1538 1539 1539 1539 1539 1540 1540 1540 1540 1541 1541 1541 1541 1541 1541 1540 1540 1539 1539 1538
1493 1497 1499 1505 1508 1505 1500 1500 1501 1500 1501 1503 1504 1506 1508 1511 1515 1517 1518 1515 1514 1513 1509 1511 1507 1489 1488 1500 1499 1497 1501 1501 1501 1502 1503 1505 1505 1505 1508 1510 1513 1515 1515 1517 1520 1522 1524 1525 1525 1526 1527 1528 1529 1529 1530 1531 1532 1533 1534 1534 1535 1535 1536 1536 1537 1537 1537 1537 1538 1538 1538 1538 1539 1539 1539 1539 1539 1539 1539 1539 1539 1538 1538 1537 1537 1536
1488 1493 1497 1500 1501 1500 1500 1502 1504 1503 1502 1501 1501 1502 1503 1505 1506 1509 1511 1510 1512 1514 1510 1513 1510 1493 1491 1501 1500 1499 1500 1499 1501 1502 1502 1503 1503 1506 1509 1511 1513 1514 1515 1519 1521 1522 1523 1524 1525 1525 1526 1526 1526 1527 1528 1529 1530 1532 1532 1533 1533 1534 1535 1535 1536 1536 1536 1536 1536 1536 1537 1537 1537 1538 1538 1538 1537 1537 1537 1537 1537 1536 1536 1535 1534 1533
1486 1490 1494 1497 1498 1499 1500 1501 1502 1503 1503 1501 1500 1502 1503 1503 1501 1503 1506 1507 1508 1508 1509 1515 1509 1492 1493 1501 1499 1498 1499 1498 1499 1500 1500 1502 1503 1506 1508 1509 1511 1513 1516 1519 1520 1520 1522 1522 1523 1524 1523 1524 1524 1525 1526 1527 1529 1530 1530 1531 1532 1532 1533 1534 1534 1534 1534 1535 1535 1535 1535 1535 1536 1536 1536 1536 1536 1536 1536 1535 1535 1534 1533 1533 1532 1531
1483 1487 1491 1496 1500 1501 1503 1502 1502 1502 1502 1500 1499 1502 1503 1501 1503 1507 1509 1511 1510 1503 1504 1511 1502 1488 1493 1500 1498 1498 1498 1497 1499 1499 1500 1501 1502 1504 1505 1507 1510 1512 1515 1517 1518 1518 1519 1520 1521 1521 1521 1522 1522 1523 1524 1525 1527 1528 1529 1530 1530 1531 1532 1532 1532 1532 1533 1533 1533 1533 1534 1534 1534 1534 1535 1535 1535 1534 1534 1533 1532 1532 1531 1530 1529 1528
1479 1482 1485 1490 1495 1496 1496 1496 1495 1495 1498 1500 1499 1501 1501 1500 1502 1503 1504 1508 1509 1503 1501 1501 1493 1487 1493 1497 1496 1497 1498 1498 1499 1499 1500 1501 1501 1502 1504 1506 1509 1511 1513 1514 1514 1515 1516 1517 1517 1517 1518 1519 1519 1521 1522 1524 1525 1526 1526 1527 1528 1529 1529 1530 1530 1530 1531 1531 1531 1532 1532 1532 1533 1533 1533 1533 1533 1532 1531 1531 1530 1529 1528 1527 1526 1525
1478 1481 1480 1480 1481 1481 1480 1483 1487 1488 1491 1494 1494 1494 1497 1499 1499 1500 1502 1503 1503 1503 1499 1491 1487 1490 1492 1492 1495 1497 1497 1498 1499 1499 1500 1500 1500 1501 1502 1505 1507 1509 1510 1511 1511 1512 1513 1513 1514 1514 1515 1516 1517 1519 1520 1522 1523 1523 1524 1525 1526 1527 1527 1528 1528 1529 1529 1529 1529 1530 1530 1531 1531 1531 1531 1531 1530 1529 1529 1528 1527 1527 1526 1525 1524 1523
1478 1480 1477 1476 1476 1476 1477 1481 1485 1486 1484 1486 1488 1489 1492 1497 1498 1499 1499 1496 1497 1502 1496 1486 1488 1493 1489 1489 1495 1495 1495 1498 1499 1498 1498 1498 1499 1500 1502 1504 1505 1506 1507 1508 1508 1509 1509 1510 1511 1512 1513 1514 1515 1516 1518 1519 1520 1521 1522 1523 1524 1525 1525 1526 1526 1526 1527 1527 1527 1528 1528 1528 1529 1528 1528 1528 1527 1527 1526 1526 1525 1524 1523 1522 1521 1520
1476 1476 1475 1478 1478 1478 1481 1484 1484 1484 1483 1483 1485 1484 1486 1492 1496 1496 1495 1492 1492 1494 1487 1483 1489 1491 1486 1489 1493 1492 1493 1496 1497 1497 1497 1497 1498 1499 1501 1502 1503 1504 1504 1505 1505 1506 1506 1507 1508 1509 1511 1511 1513 1514 1515 1516 1517 1518 1519 1520 1521 1522 1522 1524 1524 1524 1525 1525 1525 1526 1525 1526 1526 1526 1526 1525 1525 1525 1524 1523 1522 1521 1520 1519 1518 1517
1474 1473 1474 1477 1478 1478 1481 1485 1486 1485 1486 1486 1484 1482 1483 1488 1491 1491 1491 1490 1491 1489 1484 1486 1492 1490 1486 1489 1491 1491 1493 1495 1495 1496 1496 1496 1498 1498 1500 1501 1500 1501 1502 1502 1503 1504 1504 1505 1506 1507 1508 1509 1510 1511 1512 1513 1515 1515 1516 1517 1518 1519 1520 1521 1522 1522 1523 1523 1523 1523 1523 1523 1523 1523 1523 1523 1522 1522 1521 1520 1519 1518 1518 1516 1515 1514
1474 1475 1476 1477 1480 1479 1480 1486 1489 1488 1488 1487 1482 1481 1485 1487 1489 1492 1492 1492 1493 1492 1489 1492 1494 1489 1485 1488 1490 1491 1492 1493 1493 1494 1494 1495 1496 1497 1498 1498 1498 1499 1500 1500 1501 1502 1502 1502 1503 1503 1505 1506 1507 1508 1509 1511 1512 1513 1514 1515 1516 1517 1518 1519 1519 1520 1520 1520 1520 1520 1520 1520 1521 1521 1521 1520 1519 1519 1518 1517 1517 1516 1515 1513 1512 1511
1475 1479 1480 1482 1481 1477 1479 1487 1489 1488 1493 1490 1481 1480 1486 1485 1484 1487 1490 1488 1488 1487 1489 1493 1492 1486 1484 1487 1489 1489 1490 1491 1491 1491 1492 1493 1494 1495 1495 1495 1495 1496 1497 1498 1499 1499 1499 1500 1500 1501 1502 1503 1504 1505 1507 1508 1510 1510 1511 1513 1514 1515 1516 1516 1517 1517 1517 1517 1517 1517 1518 1518 1518 1518 1518 1517 1516 1516 1515 1515 1514 1513 1512 1511 1509 1508
1475 1477 1479 1482 1479 1475 1482 1490 1489 1491 1493 1481 1467 1470 1479 1480 1479 1482 1484 1482 1481 1482 1485 1486 1482 1481 1483 1486 1487 1487 1487 1489 1489 1489 1490 1490 1491 1492 1492 1492 1494 1494 1495 1496 1496 1497 1497 1498 1499 1499 1500 1501 1502 1503 1505 1506 1507 1508 1509 1511 1512 1513 1513 1513 1514 1514 1514 1515 1515 1514 1515 1515 1515 1515 1515 1514 1514 1513 1512 1512 1511 1510 1509 1508 1506 1504
1474 1473 1474 1476 1475 1479 1491 1495 1493 1490 1478 1460 1454 1460 1467 1471 1474 1478 1477 1475 1476 1478 1479 1478 1478 1480 1483 1484 1484 1483 1484 1485 1486 1486 1487 1488 1489 1490 1490 1491 1492 1492 1493 1494 1494 1495 1496 1496 1497 1498 1498 1500 1500 1501 1503 1504 1505 1506 1508 1509 1510 1510 1510 1511 1511 1511 1512 1512 1512 1512 1512 1512 1512 1512 1511 1511 1511 1510 1509 1509 1508 1507 1506 1504 1503 1501
1471 1472 1474 1475 1478 1488 1499 1499 1491 1479 1463 1457 1462 1464 1462 1464 1468 1471 1471 1471 1473 1476 1475 1476 1479 1480 1479 1479 1479 1480 1481 1482 1483 1483 1484 1486 1487 1487 1488 1489 1489 1490 1491 1492 1492 1493 1494 1495 1496 1496 1497 1498 1499 1500 1501 1502 1503 1504 1505 1506 1507 1507 1508 1508 1508 1509 1509 1509 1509 1509 1509 1509 1509 1509 1508 1508 1507 1507 1506 1505 1504 1503 1502 1500 1499 1497
1466 1469 1473 1478 1484 1492 1497 1491 1476 1464 1462 1467 1471 1468 1466 1468 1469 1472 1473 1470 1470 1472 1474 1476 1478 1476 1474 1475 1476 1478 1479 1480 1480 1480 1482 1484 1484 1485 1486 1487 1487 1488 1489 1490 1491 1492 1492 1493 1494 1495 1496 1497 1497 1498 1499 1500 1501 1502 1503 1504 1504 1505 1505 1505 1505 1505 1505 1506 1506 1506 1506 1506 1505 1505 1505 1505 1504 1504 1503 1502 1501 1499 1498 1496 1495 1493
1462 1465 1469 1473 1476 1480 1484 1480 1468 1462 1462 1462 1463 1463 1462 1462 1464 1468 1468 1465 1464 1467 1471 1474 1474 1472 1471 1472 1474 1476 1478 1479 1479 1478 1479 1481 1482 1483 1484 1485 1486 1487 1488 1489 1489 1490 1490 1491 1492 1493 1494 1495 1496 1497 1497 1499 1500 1500 1501 1501 1501 1502 1502 1502 1502 1502 1502 1502 1502 1502 1502 1502 1502 1502 1502 1501 1501 1500 1499 1498 1497 1495 1494 1492 1490 1489
1461 1462 1463 1465 1465 1468 1475 1475 1472 1469 1459 1448 1450 1456 1456 1457 1460 1462 1464 1464 1462 1463 1466 1468 1468 1468 1468 1471 1474 1475 1477 1480 1478 1475 1476 1479 1480 1481 1482 1483 1484 1485 1486 1486 1487 1488 1488 1489 1490 1491 1492 1493 1494 1495 1496 1497 1498 1498 1498 1498 1498 1498 1498 1498 1498 1498 1498 1499 1499 1499 1499 1499 1499 1499 1498 1498 1497 1496 1495 1494 1493 1491 1490 1488 1486 1485
1463 1463 1462 1462 1463 1465 1468 1467 1464 1461 1450 1443 1448 1454 1456 1459 1459 1461 1468 1468 1460 1459 1462 1462 1464 1466 1466 1469 1472 1474 1477 1479 1476 1474 1475 1477 1478 1479 1481 1482 1482 1483 1484 1484 1485 1486 1486 1487 1488 1489 1490 1491 1492 1493 1494 1494 1495 1495 1495 1495 1495 1495 1495 1495 1495 1495 1495 1495 1495 1496 1496 1495 1495 1495 1495 1494 1493 1492 1491 1490 1489 1487 1486 1484 1482 1481
1465 1465 1464 1463 1461 1461 1463 1463 1459 1453 1448 1448 1453 1456 1458 1458 1458 1465 1473 1466 1455 1456 1459 1459 1461 1464 1464 1467 1471 1473 1474 1474 1473 1473 1474 1476 1477 1478 1479 1480 1480 1480 1481 1482 1483 1484 1484 1485 1486 1487 1487 1488 1489 1490 1491 1491 1491 1492 1492 1492 1492 1492 1492 1492 1492 1492 1492 1492 1492 1492 1492 1492 1492 1491 1491 1491 1489 1488 1487 1486 1485 1483 1482 1480 1478 1477
1467 1466 1465 1463 1459 1457 1458 1459 1457 1452 1449 1452 1456 1456 1456 1459 1463 1466 1464 1455 1452 1456 1457 1457 1461 1462 1463 1466 1468 1469 1469 1469 1470 1471 1472 1474 1475 1476 1477 1478 1478 1478 1479 1480 1481 1481 1482 1483 1483 1484 1485 1486 1486 1487 1487 1488 1488 1488 1488 1488 1488 1488 1488 1489 1489 1489 1489 1489 1489 1489 1489 1488 1488 1488 1487 1487 1486 1485 1483 1482 1481 1479 1477 1476 1474 1473
1463 1465 1465 1462 1460 1459 1457 1457 1458 1453 1446 1449 1455 1456 1457 1460 1461 1457 1451 1449 1452 1454 1455 1457 1460 1460 1462 1463 1464 1465 1466 1466 1468 1469 1470 1472 1473 1473 1474 1475 1475 1475 1476 1477 1478 1479 1479 1480 1480 1481 1482 1483 1483 1484 1484 1484 1485 1485 1485 1485 1485 1485 1485 1485 1485 1485 1485 1485 1485 1485 1485 1485 1485 1484 1484 1483 1482 1481 1480 1478 1477 1475 1474 1472 1470 1468
1449 1456 1461 1457 1455 1460 1462 1461 1459 1451 1441 1443 1452 1456 1456 1454 1450 1447 1447 1450 1452 1452 1454 1457 1458 1458 1460 1461 1461 1462 1463 1464 1466 1467 1468 1470 1470 1471 1472 1471 1472 1473 1474 1474 1476 1476 1476 1477 1477 1478 1479 1479 1480 1480 1480 1481 1481 1481 1481 1481 1481 1481 1481 1481 1481 1481 1481 1482 1482 1482 1482 1482 1481 1481 1480 1479 1478 1477 1475 1474 1473 1471 1470 1468 1466 1464
1441 1447 1452 1448 1448 1455 1459 1453 1446 1440 1436 1439 1443 1446 1447 1446 1444 1445 1447 1449 1450 1452 1453 1454 1455 1457 1458 1458 1459 1460 1461 1463 1464 1465 1466 1467 1467 1468 1468 1468 1469 1470 1471 1472 1473 1473 1473 1473 1474 1475 1475 1476 1476 1476 1477 1477 1477 1477 1477 1477 1478 1478 1477 1477 1478 1478 1478 1478 1478 1478 1478 1478 1477 1477 1476 1475 1473 1472 1471 1470 1469 1467 1466 1464 1462 1460
1436 1438 1441 1438 1439 1444 1443 1438 1435 1435 1436 1438 1438 1439 1441 1442 1443 1445 1446 1447 1449 1450 1451 1452 1453 1454 1455 1456 1457 1458 1459 1461 1462 1462 1463 1464 1464 1465 1465 1465 1466 1467 1468 1469 1469 1469 1470 1470 1470 1471 1471 1472 1472 1472 1472 1473 1473 1473 1474 1474 1474 1474 1474 1474 1474 1474 1474 1474 1474 1474 1474 1474 1473 1472 1471 1470 1469 1468 1467 1466 1465 1463 1462 1460 1458 1456
1435 1437 1437 1436 1437 1436 1434 1433 1434 1435 1436 1437 1438 1439 1441 1441 1443 1444 1445 1446 1447 1448 1449 1450 1451 1452 1453 1454 1455 1456 1457 1458 1458 1459 1460 1460 1461 1461 1461 1462 1463 1464 1465 1465 1466 1466 1466 1466 1466 1467 1467 1468 1468 1468 1469 1469 1469 1470 1470 1470 1470 1470 1470 1470 1470 1470 1471 1471 1470 1470 1470 1469 1469 1468 1467 1466 1465 1463 1463 1462 1460 1459 1457 1456 1454 1452
1435 1436 1436 1436 1435 1433 1431 1432 1433 1434 1435 1436 1437 1439 1439 1440 1442 1442 1443 1444 1445 1446 1447 1448 1449 1450 1451 1451 1452 1453 1454 1454 1455 1456 1456 1457 1457 1457 1458 1459 1460 1460 1461 1462 1462 1462 1462 1462 1462 1462 1462 1463 1464 1464 1465 1465 1466 1466 1466 1466 1466 1466 1466 1466 1466 1466 1467 1467 1466 1466 1466 1465 1464 1463 1462 1462 1460 1459 1459 1457 1456 1454 1453 1451 1450 1448
1431 1433 1435 1435 1433 1432 1432 1433 1434 1434 1435 1435 1436 1437 1438 1438 1439 1440 1441 1442 1443 1444 1445 1446 1447 1447 1448 1449 1450 1450 1450 1451 1451 1452 1452 1453 1453 1454 1454 1455 1456 1456 1457 1458 1458 1458 1458 1458 1458 1458 1458 1459 1459 1460 1461 1461 1462 1462 1462 1462 1462 1462 1462 1462 1462 1462 1463 1462 1462 1462 1461 1460 1460 1459 1458 1457 1456 1455 1455 1453 1452 1450 1449 1448 1446 1443
1429 1431 1431 1432 1432 1431 1432 1434 1435 1436 1436 1435 1435 1435 1435 1436 1437 1438 1439 1440 1441 1441 1442 1443 1444 1445 1445 1446 1447 1446 1447 1447 1447 1448 1449 1449 1449 1449 1450 1450 1451 1452 1453 1453 1453 1453 1453 1453 1454 1454 1454 1455 1455 1456 1457 1457 1458 1458 1458 1458 1458 1458 1458 1458 1458 1458 1458 1458 1458 1458 1457 1456 1455 1454 1454 1453 1452 1451 1450 1449 1448 1446 1445 1444 1443 1440
1428 1427 1427 1429 1430 1428 1428 1430 1432 1432 1432 1432 1432 1432 1432 1434 1435 1436 1437 1437 1438 1438 1439 1440 1441 1442 1442 1443 1443 1443 1443 1443 1443 1444 1445 1445 1445 1445 1445 1446 1447 1447 1447 1448 1448 1448 1448 1449 1449 1449 1450 1450 1451 1452 1452 1453 1454 1454 1453 1454 1454 1454 1454 1454 1453 1454 1454 1453 1454 1453 1452 1452 1451 1450 1449 1448 1448 1447 1446 1445 1444 1442 1441 1439 1438 1436
1420 1418 1419 1421 1421 1421 1422 1425 1427 1428 1427 1427 1428 1429 1430 1431 1432 1433 1433 1434 1435 1435 1437 1438 1438 1439 1439 1439 1440 1440 1440 1439 1440 1441 1440 1440 1440 1441 1441 1442 1442 1442 1443 1443 1443 1443 1444 1444 1444 1444 1445 1446 1447 1447 1448 1448 1449 1449 1449 1449 1449 1449 1449 1449 1449 1449 1449 1449 1449 1448 1448 1447 1446 1446 1445 1444 1443 1442 1441 1440 1439 1439 1438 1436 1434 1432